Weather observations for the past three days for
Fletcher Field, Clarksdale
Metric (Imperial)
Date Time (cdt) Wind (kph) Vis. (km) Weather Sky Cond. Temperature (ºC) Relative Humidity Wind Chill (°C) Heat Index (°C) Pressure Precipitation (cm)
Air Dwpt 6 hour altimeter (cm) sea level (mb) 1 hr 3 hr 6 hr
Max. Min.
04 20:55 S 13 16.09 NULL NULL 0 0 0% 75.79 0.0
04 20:35 S 15 16.09 NULL NULL 0 0 0% 75.79 0.0
04 20:15 S 19 16.09 NULL NULL 0 0 0% 75.79 0.0
04 19:55 S 17 G 28 16.09 NULL NULL 0 0 0% 75.79 0.0
04 19:35 S 19 16.09 NULL NULL 0 0 0% 75.77 0.0
04 19:15 S 22 16.09 NULL NULL 0 0 0% 75.77 0.0
04 18:55 S 22 16.09 NULL NULL 0 0 0% 75.77 0.0
04 18:35 SW 24 G 35 16.09 NULL NULL 0 0 0% 75.79 0.0
04 18:15 S 24 G 41 16.09 NULL NULL 0 0 0% 75.82 0.0
04 16:35 S 24 G 37 14.48 NULL NULL 0 0 0% 75.84 0.0
04 16:15 SW 28 G 43 14.48 NULL NULL 0 0 0% 75.87 0.0
04 15:55 S 33 G 48 16.09 Breezy NULL 0 0 0% 75.87 0.0
04 15:35 S 30 G 41 14.48 NULL NULL 0 0 0% 75.87 0.0
04 15:15 S 28 G 41 14.48 NULL NULL 0 0 0% 75.9 0.0
04 14:55 S 24 G 33 2.82 Fog/Mist NULL 0 0 0% 75.95 0.0
04 14:35 S 31 G 46 6.44 Haze NULL 0 0 0% 75.97 0.0
04 14:15 SW 26 G 41 4.83 Fog/Mist NULL 0 0 0% 76 0.0
04 13:55 S 28 G 43 3.22 Fog/Mist NULL 0 0 0% 76 0.0
04 13:35 SW 24 G 37 16.09 NULL NULL 0 0 0% 76.02 0.0
04 13:15 SW 20 G 35 16.09 NULL NULL 0 0 0% 76.02 0.0
04 12:55 S 20 G 35 16.09 NULL NULL 0 0 0% 76.05 0.0
04 12:35 SW 24 G 37 16.09 NULL NULL 0 0 0% 76.07 0.0
04 12:15 S 26 G 35 16.09 NULL NULL 0 0 0% 76.07 0.0
04 11:55 SW 20 G 33 16.09 NULL NULL 0 0 0% 76.1 0.0
04 11:35 SW 30 14.48 NULL NULL 0 0 0% 76.1 0.0
04 11:15 S 28 16.09 NULL NULL 0 0 0% 76.12 0.0
04 10:55 SW 24 16.09 NULL NULL 0 0 0% 76.12 0.0
04 10:35 S 19 G 28 16.09 NULL NULL 0 0 0% 76.15 0.0
04 10:15 SW 17 16.09 NULL NULL 0 0 0% 76.15 0.0
04 09:55 SW 19 16.09 NULL NULL 0 0 0% 76.15 0.0
04 09:35 SW 19 16.09 NULL NULL 0 0 0% 76.17 0.0
04 09:15 S 15 G 24 16.09 NULL NULL 0 0 0% 76.17 0.0
04 08:55 SW 17 16.09 NULL NULL 0 0 0% 76.17 0.0
04 08:35 S 19 16.09 NULL NULL 0 0 0% 76.15 0.0
04 08:15 S 13 G 26 16.09 NULL NULL 0 0 0% 76.15 0.0
04 07:55 S 15 16.09 NULL NULL 0 0 0% 76.15 0.0
04 07:35 S 11 16.09 NULL NULL 0 0 0% 76.15 0.0
04 07:15 S 6 16.09 NULL NULL 0 0 0% 76.15 0.0
04 06:55 S 11 16.09 NULL NULL 0 0 0% 76.12 0.0
04 06:35 S 9 16.09 NULL NULL 0 0 0% 76.1 0.0
04 06:15 S 7 16.09 NULL NULL 0 0 0% 76.1 0.0
04 05:55 S 9 16.09 NULL NULL 0 0 0% 76.1 0.0
04 05:35 S 11 16.09 NULL NULL 0 0 0% 76.1 0.0
04 05:15 S 11 16.09 NULL NULL 0 0 0% 76.1 0.0
04 04:55 S 13 16.09 NULL NULL 0 0 0% 76.12 0.0
04 04:35 S 13 16.09 NULL NULL 0 0 0% 76.12 0.0
04 04:15 S 11 16.09 NULL NULL 0 0 0% 76.12 0.0
04 03:55 S 11 16.09 NULL NULL 0 0 0% 76.12 0.0
04 03:35 S 11 16.09 NULL NULL 0 0 0% 76.12 0.0
04 03:15 S 11 0.00 NULL NULL 0 0 0% 76.15 0.0
04 02:55 S 7 16.09 NULL NULL 0 0 0% 76.15 0.0
04 02:35 S 11 16.09 NULL NULL 0 0 0% 76.15 0.0
04 02:15 S 13 16.09 NULL NULL 0 0 0% 76.17 0.0
04 01:55 S 13 16.09 NULL NULL 0 0 0% 76.17 0.0
04 01:35 S 13 16.09 NULL NULL 0 0 0% 76.2 0.0
04 01:15 S 13 16.09 NULL NULL 0 0 0% 76.23 0.0
04 00:55 S 15 16.09 NULL NULL 0 0 0% 76.23 0.0
04 00:35 SE 13 16.09 NULL NULL 0 0 0% 76.23 0.0
04 00:15 S 13 16.09 NULL NULL 0 0 0% 76.23 0.0
03 23:55 S 13 16.09 NULL NULL 0 0 0% 76.23 0.0
03 23:35 S 11 16.09 NULL NULL 0 0 0% 76.25 0.0
03 23:15 S 11 16.09 NULL NULL 0 0 0% 76.25 0.0
03 22:55 S 11 16.09 NULL NULL 0 0 0% 76.23 0.0
03 22:35 S 11 16.09 NULL NULL 0 0 0% 76.23 0.0
03 22:15 S 9 16.09 NULL NULL 0 0 0% 76.25 0.0
03 21:55 S 11 16.09 NULL NULL 0 0 0% 76.25 0.0
03 21:35 S 11 16.09 NULL NULL 0 0 0% 76.25 0.0
03 21:15 S 9 16.09 NULL NULL 0 0 0% 76.23 0.0
03 20:55 Calm 16.09 NULL NULL 0 0 0% 76.23 0.0
03 20:35 S 9 16.09 NULL NULL 0 0 0% 76.23 0.0
03 20:15 Calm 16.09 NULL NULL 0 0 0% 76.23 0.0
03 19:55 Calm 16.09 NULL NULL 0 0 0% 76.2 0.0
03 19:35 S 6 16.09 NULL NULL 0 0 0% 76.2 0.0
03 19:15 S 9 16.09 NULL NULL 0 0 0% 76.23 0.0
03 18:55 S 11 16.09 NULL NULL 0 0 0% 76.23 0.0
03 18:35 SW 15 16.09 NULL NULL 0 0 0% 76.23 0.0
03 18:15 S 11 16.09 NULL NULL 0 0 0% 76.23 0.0
03 17:55 SW 15 16.09 NULL NULL 0 0 0% 76.25 0.0
03 17:35 SW 7 16.09 NULL NULL 0 0 0% 76.25 0.0
03 17:15 SW 15 G 24 16.09 NULL NULL 0 0 0% 76.28 0.0
03 16:55 SW 15 16.09 NULL NULL 0 0 0% 76.3 0.0
03 16:35 SW 19 G 28 16.09 NULL NULL 0 0 0% 76.3 0.0
03 16:15 SW 11 G 24 16.09 NULL NULL 0 0 0% 76.33 0.0
03 15:55 Vrbl 11 G 35 12.87 NULL NULL 0 0 0% 76.35 0.0
03 15:35 W 17 16.09 NULL NULL 0 0 0% 76.38 0.0
03 15:15 SW 22 G 31 16.09 NULL NULL 0 0 0% 76.4 0.0
03 14:55 SW 20 16.09 NULL NULL 0 0 0% 76.43 0.0
03 14:35 Vrbl 11 G 20 16.09 NULL NULL 0 0 0% 76.45 0.0
03 13:55 SW 7 G 20 16.09 NULL NULL 0 0 0% 76.5 0.0
03 13:35 Calm 16.09 NULL NULL 0 0 0% 76.53 0.0
03 13:15 Vrbl 9 G 22 16.09 NULL NULL 0 0 0% 76.56 0.0
03 12:55 S 17 16.09 NULL NULL 0 0 0% 76.58 0.0
03 11:35 S 17 16.09 NULL NULL 0 0 0% 76.68 0.0
03 11:15 S 15 G 26 16.09 NULL NULL 0 0 0% 76.68 0.0
03 10:55 S 13 G 24 16.09 NULL NULL 0 0 0% 76.71 0.0
03 10:35 S 17 16.09 NULL NULL 0 0 0% 76.71 0.0
03 10:15 S 15 16.09 NULL NULL 0 0 0% 76.71 0.0
03 09:55 SE 17 16.09 NULL NULL 0 0 0% 76.71 0.0
03 09:35 SE 17 16.09 NULL NULL 0 0 0% 76.71 0.0
03 09:15 SE 19 16.09 NULL NULL 0 0 0% 76.71 0.0
03 08:55 SE 17 16.09 NULL NULL 0 0 0% 76.71 0.0
03 08:35 SE 11 16.09 NULL NULL 0 0 0% 76.71 0.0
03 08:15 SE 13 16.09 NULL NULL 0 0 0% 76.71 0.0
03 07:55 SE 6 16.09 NULL NULL 0 0 0% 76.71 0.0
03 07:35 SE 7 16.09 NULL NULL 0 0 0% 76.71 0.0
03 07:15 Calm 16.09 NULL NULL 0 0 0% 76.68 0.0
03 06:55 Calm 16.09 NULL NULL 0 0 0% 76.68 0.0
03 06:35 Calm 16.09 NULL NULL 0 0 0% 76.66 0.0
03 06:15 Calm 16.09 NULL NULL 0 0 0% 76.63 0.0
03 05:55 Calm 16.09 NULL NULL 0 0 0% 76.61 0.0
03 05:35 Calm 16.09 NULL NULL 0 0 0% 76.61 0.0
03 05:15 Calm 16.09 NULL NULL 0 0 0% 76.61 0.0
03 04:55 Calm 16.09 NULL NULL 0 0 0% 76.61 0.0
03 04:35 Calm 16.09 NULL NULL 0 0 0% 76.58 0.0
03 04:15 Calm 16.09 NULL NULL 0 0 0% 76.58 0.0
03 03:55 Calm 16.09 NULL NULL 0 0 0% 76.58 0.0
03 03:35 Calm 16.09 NULL NULL 0 0 0% 76.58 0.0
03 03:15 Calm 16.09 NULL NULL 0 0 0% 76.56 0.0
03 02:55 Calm 16.09 NULL NULL 0 0 0% 76.56 0.0
03 02:35 Calm 16.09 NULL NULL 0 0 0% 76.56 0.0
03 02:15 Calm 16.09 NULL NULL 0 0 0% 76.56 0.0
03 01:55 E 11 16.09 NULL NULL 0 0 0% 76.56 0.0
03 01:35 NE 13 16.09 NULL NULL 0 0 0% 76.56 0.0
03 01:15 NE 13 16.09 NULL NULL 0 0 0% 76.53 0.0
03 00:55 NE 17 16.09 NULL NULL 0 0 0% 76.53 0.0
03 00:35 Calm 16.09 NULL NULL 0 0 0% 76.53 0.0
02 23:55 Calm 16.09 NULL NULL 0 0 0% 76.5 0.0
02 23:35 Calm 16.09 NULL NULL 0 0 0% 76.5 0.0
02 23:15 Calm 16.09 NULL NULL 0 0 0% 76.48 0.0
02 22:55 Calm 16.09 NULL NULL 0 0 0% 76.48 0.0
02 22:35 Calm 16.09 NULL NULL 0 0 0% 76.45 0.0
02 22:15 Calm 16.09 NULL NULL 0 0 0% 76.45 0.0
02 21:55 Calm 16.09 NULL NULL 0 0 0% 76.45 0.0
02 21:35 Calm 16.09 NULL NULL 0 0 0% 76.43 0.0
02 21:15 Calm 16.09 NULL NULL 0 0 0% 76.4 0.0
02 20:55 Calm 16.09 NULL NULL 0 0 0% 76.4 0.0
02 20:35 Calm 16.09 NULL NULL 0 0 0% 76.38 0.0
02 20:15 Calm 16.09 NULL NULL 0 0 0% 76.38 0.0
02 19:55 Calm 16.09 NULL NULL 0 0 0% 76.35 0.0
02 19:35 N 7 16.09 NULL NULL 0 0 0% 76.33 0.0
02 19:15 N 11 16.09 NULL NULL 0 0 0% 76.3 0.0
02 18:55 N 17 16.09 NULL NULL 0 0 0% 76.3 0.0
02 18:35 NW 17 16.09 NULL NULL 0 0 0% 76.3 0.0
02 18:15 NW 17 16.09 NULL NULL 0 0 0% 76.3 0.0
02 17:55 W 15 G 26 16.09 NULL NULL 0 0 0% 76.3 0.0
02 17:35 W 22 16.09 NULL NULL 0 0 0% 76.3 0.0
02 17:15 NW 20 16.09 NULL NULL 0 0 0% 76.3 0.0
02 16:55 W 22 16.09 NULL NULL 0 0 0% 76.3 0.0
02 16:35 NW 24 16.09 NULL NULL 0 0 0% 76.3 0.0
02 16:15 NW 19 16.09 NULL NULL 0 0 0% 76.33 0.0
02 15:55 NW 13 G 24 16.09 NULL NULL 0 0 0% 76.33 0.0
02 15:35 NW 19 16.09 NULL NULL 0 0 0% 76.35 0.0
02 15:15 W 9 G 26 16.09 NULL NULL 0 0 0% 76.35 0.0
02 14:55 W 13 G 30 16.09 NULL NULL 0 0 0% 76.38 0.0
02 14:35 NW 13 G 24 16.09 NULL NULL 0 0 0% 76.4 0.0
02 14:15 W 22 16.09 NULL NULL 0 0 0% 76.4 0.0
02 13:55 NW 17 16.09 NULL NULL 0 0 0% 76.4 0.0
02 13:35 W 26 G 35 16.09 NULL NULL 0 0 0% 76.43 0.0
02 13:15 NW 13 16.09 NULL NULL 0 0 0% 76.43 0.0
02 12:55 W 15 G 24 16.09 NULL NULL 0 0 0% 76.45 0.0
02 12:35 NW 15 G 26 16.09 NULL NULL 0 0 0% 76.48 0.0
02 12:15 NW 13 16.09 NULL NULL 0 0 0% 76.48 0.0
02 11:55 NW 15 16.09 NULL NULL 0 0 0% 76.48 0.0
02 11:35 W 15 16.09 NULL NULL 0 0 0% 76.5 0.0
02 11:15 NW 15 16.09 NULL NULL 0 0 0% 76.5 0.0
02 10:55 W 15 16.09 NULL NULL 0 0 0% 76.5 0.0
02 10:35 NW 9 16.09 NULL NULL 0 0 0% 76.5 0.0
02 10:15 Calm 16.09 NULL NULL 0 0 0% 76.5 0.0
02 09:55 Calm 16.09 NULL NULL 0 0 0% 76.5 0.0
02 09:35 Calm 16.09 NULL NULL 0 0 0% 76.5 0.0
02 09:15 Calm 12.87 NULL NULL 0 0 0% 76.48 0.0
02 08:55 Calm 16.09 NULL NULL 0 0 0% 76.48 0.0
02 08:35 Calm 16.09 NULL NULL 0 0 0% 76.48 0.0
02 08:15 Calm 16.09 NULL NULL 0 0 0% 76.45 0.0
02 07:55 Calm 16.09 NULL NULL 0 0 0% 76.43 0.0
02 07:35 Calm 16.09 NULL NULL 0 0 0% 76.43 0.0
02 07:15 Calm 16.09 NULL NULL 0 0 0% 76.4 0.0
02 06:55 Calm 16.09 NULL NULL 0 0 0% 76.38 0.0
02 06:35 Calm 16.09 NULL NULL 0 0 0% 76.38 0.0
02 06:15 Calm 16.09 NULL NULL 0 0 0% 76.35 0.0
02 05:55 Calm 16.09 NULL NULL 0 0 0% 76.35 0.0
02 05:35 Calm 16.09 NULL NULL 0 0 0% 76.33 0.0
02 05:15 Calm 16.09 NULL NULL 0 0 0% 76.3 0.0
02 04:55 Calm 16.09 NULL NULL 0 0 0% 76.3 0.0
02 04:35 Calm 16.09 NULL NULL 0 0 0% 76.28 0.0
02 04:15 Calm 16.09 NULL NULL 0 0 0% 76.28 0.0
02 03:15 N 9 16.09 NULL NULL 0 0 0% 76.28 0.0
02 02:55 N 7 16.09 NULL NULL 0 0 0% 76.28 0.0
02 02:35 N 13 16.09 NULL NULL 0 0 0% 76.28 0.0
02 02:15 N 11 16.09 NULL NULL 0 0 0% 76.28 0.0
02 01:55 Calm 16.09 NULL NULL 0 0 0% 76.3 0.0
02 01:35 Calm 16.09 NULL NULL 0 0 0% 76.3 0.0
02 01:15 Calm 16.09 NULL NULL 0 0 0% 76.3 0.0
02 00:55 Calm 16.09 NULL NULL 0 0 0% 76.3 0.0
02 00:35 Calm 16.09 NULL NULL 0 0 0% 76.3 0.0
02 00:15 Calm 16.09 NULL NULL 0 0 0% 76.33 0.0
01 23:55 NE 9 16.09 NULL NULL 0 0 0% 76.3 0.0
01 23:35 N 7 16.09 NULL NULL 0 0 0% 76.28 0.0
01 23:15 N 9 16.09 NULL NULL 0 0 0% 76.28 0.0
01 22:55 N 11 16.09 NULL NULL 0 0 0% 76.28 0.0
01 22:35 N 15 16.09 NULL NULL 0 0 0% 76.28 0.0
01 22:15 N 17 16.09 NULL NULL 0 0 0% 76.28 0.0
01 21:55 N 17 16.09 NULL NULL 0 0 0% 76.25 0.0
01 21:35 N 15 16.09 NULL NULL 0 0 0% 76.25 0.0
01 21:15 N 17 16.09 NULL NULL 0 0 0% 76.23 0.0
Date Time (cdt) Wind (kph) Vis. (km) Weather Sky Cond. Air Dwpt Max. Min. Relative Humidity Wind Chill (°C) Heat Index (°C) altimeter (cm) sea level (mb) 1 hr 3 hr 6 hr
6 hour
Temperature (ºC) Pressure Precipitation (cm)